DW4738 Weather Reports


time (UTC)temp
C
wind
direction
speed
KPH
gust
KPH
rain 1hr
cm
rain 24hr
cm
rain mn
cm
humidity
%
barometer
mb
20260505170100 13 292 1.6 8.0 0.00 0.00 0.00 80 1013.8
20260505163020 12 270 1.6 8.0 0.00 0.00 0.00 83 1013.6
20260505153040 11 0.0 4.8 0.00 0.00 0.00 85 1013.5
20260505123042 11 0.0 1.6 0.00 0.00 0.00 83 1012.7
20260505120022 11 0.0 3.2 0.00 0.00 0.00 83 1012.9
20260505113022 11 0.0 3.2 0.00 0.00 0.00 83 1012.8
20260505100022 11 0.0 3.2 0.00 0.00 0.00 84 1012.8
20260505093022 11 0.0 4.8 0.00 0.00 0.00 84 1012.9
20260505090022 11 0.0 8.0 0.00 0.00 0.00 85 1013.3
20260505083022 11 0.0 4.8 0.00 0.00 0.00 86 1013.3
20260505080042 11 0.0 4.8 0.00 0.00 0.00 86 1013.5
20260505073020 11 0.0 3.2 0.00 0.00 0.00 85 1013.3
20260505070018 11 0.0 6.4 0.00 0.00 0.00 84 1013.2
20260505063041 12 315 1.6 9.7 0.00 0.00 0.00 83 1013.0
20260505060016 12 315 1.6 8.0 0.00 0.00 0.00 81 1013.1
20260505053020 12 337 1.6 4.8 0.00 0.00 0.00 79 1013.4
20260505040022 13 315 1.6 6.4 0.00 0.00 0.00 75 1012.7
20260505033022 13 0.0 6.4 0.00 0.00 0.00 75 1012.3
20260505030023 14 292 1.6 8.0 0.00 0.00 0.00 72 1012.4
20260505023022 15 270 3.2 11.3 0.00 0.00 0.00 69 1012.2
20260505020017 16 225 3.2 12.9 0.00 0.00 0.00 66 1012.1
20260505013022 16 270 4.8 14.5 0.00 0.00 0.00 63 1012.4
20260505010023 16 270 4.8 14.5 0.00 0.00 0.00 61 1012.6
20260505003021 17 270 6.4 17.7 0.00 0.00 0.00 60 1012.6
20260505000022 18 247 4.8 16.1 0.00 0.00 0.00 61 1012.4
20260504233043 18 292 4.8 16.1 0.00 0.00 0.00 61 1012.5
20260504230022 17 292 4.8 16.1 0.00 0.00 0.00 61 1012.7
20260504223022 17 292 6.4 17.7 0.00 0.00 0.00 61 1012.8
20260504220042 17 292 6.4 17.7 0.00 0.00 0.00 62 1013.2
20260504213021 16 270 6.4 16.1 0.00 0.00 0.00 65 1013.4
20260504210021 15 270 1.6 11.3 0.00 0.00 0.00 69 1013.6
20260504203017 16 180 1.6 4.8 0.00 0.00 0.00 69 1013.6
20260504200022 16 247 3.2 14.5 0.00 0.00 0.00 71 1013.7
20260504193102 16 247 4.8 14.5 0.00 0.00 0.00 73 1013.7
20260504190021 15 180 3.2 11.3 0.00 0.00 0.00 78 1013.9
20260504183022 13 180 3.2 8.0 0.00 0.00 0.00 81 1013.9
20260504180022 13 180 3.2 8.0 0.00 0.00 0.00 82 1013.7
20260504173022 13 180 3.2 6.4 0.00 0.00 0.00 80 1013.3